Location: Bad Rothenbrunn
(47.2167°N, 11.2167°E)
Time: 17:00:12
(UTC+00:00)

Cosmos 1666 - Pass Details

Date: 03 March 2021
Orbit: 497 x 518 km, 82.5° (Epoch: 22 April)

Event Time Altitude Azimuth Distance (km) Brightness Sun altitude
Rises 18:28:05 0° 174° (S) 2,571 6.1 -15.1°
Reaches altitude 10° 18:30:14 10° 168° (SSE) 1,694 5.1 -15.5°
Maximum altitude 18:33:48 46° 94° (E) 675 2.8 -16.1°
Drops below altitude 10° 18:37:24 10° 21° (NNE) 1,715 5.2 -16.7°
Sets 18:39:35 0° 15° (NNE) 2,608 6.2 -17.1°
